Showing default

ELEKTRO-L 3, 44903

Orbit data source: Space-Track

ELEKTRO-L 3, 44903 is a Commonwealth of Independent States-origin payload satellite in GEO that was launched on Tue, 24 Dec 2019 UTC via a PROTON-M/DM-3 launch vehicle from the Tyuratam Missile And Space Complex (TTMTR). Payloads include a variety of satellites, spacecraft, and rockets equipped with specific instruments for various scientific and technological missions. These include communications satellites like Starlink; space stations such as the ISS; scientific satellites like the Hubble; Earth observation satellites from companies like Planet Labs, Umbra, and HawkEye 360; GPS; miniature CubeSats for education and research; and military/defense satellites.

Not visible in the next 10 days
ELEKTRO-L 3 details
Identifier
44903, 2019-095A
Orbit
GEO
Last TLE update9 hours ago
Origin
Flag of CISRGMS/NPOLO (CIS)
ManufacturerLavochkin
MissionOperational Civil Weather
Bus & MotorNAVIGATOR, Unknown motor
Mass2,283 kg wet, 1,589 kg dry
Launch date (UTC)
2019-12-24 (5 years ago)
Launch vehicle
PROTON-M/DM-3
Launch site
Tyuratam Missile And Space Complex (TTMTR)
Object type
Payload
Rocket body
Debris
Shape & HBRBox + 1 Pan + 1 Ant, Unknown HBR
Radar Cross Section11.105 m², Large (>1 m²)

Expand to show TLE details & history

TLE from 9 hours ago
0 ELEKTRO-L 3
1 44903U 19095A   24361.54457226 -.00000068  00000-0  00000-0 0  9990
2 44903   0.0525 165.9942 0002003 124.0642  77.5580  1.00271637 18316
Epoch: 2024-12-26T13:04Z
Definitive object data (Epoch: 2024-12-26T13:04:11.043Z)
Latitude-0.02331°
Longitude76.06266°
Altitude35,784.33 km
Speed3.075 km/s
True Right ascension00h 30m 31s
True Declination0° 01' 24"
Sunlit
Object was in daylight at TLE epoch
Visualization TLE readout
Latitude0.00342°
Longitude-154.87792°
Altitude35,793.692 km
Speed3.074 km/s
Apparent Right ascension09h 06m 17s
Apparent Declination-4° 56' 24"
Sunlit
Object is in daylight
Visualization observer readout
Local Sidereal Time21:02:10
Azimuth358.213° N
Elevation-55.012°
Doppler factor1
Orbital elements
Apogee altitude35,796.153 km
Perigee altitude35,779.261 km
Semi-major axis42,165.844 km
Eccentricity0.0002003
Inclination0.0525°
RAAN165.9942°
Arg. of periapsis124.0642°
True anomaly77.58041°
Mean anomaly77.558°
Eccentric anomaly77.56921°
Mean motion0.25067 °/min
BSTARUnknown
Orbital period1436.15 mins
Loading historical data...
44903 neighbors
Authenticating...
Loading maneuver chart data...
Loading historical data...
Loading historical data...
Loading historical data...
Loading historical data...
Loading historical data...
Loading historical data...
Loading historical data...

ELEKTRO-L 3 Visibility forecast

Observer location: undefined°, undefined

ELEKTRO-L 3 is not visible in the next 10 days
Span
Click to sort rows by Start time (UTC) header in descending order
Start Az.
Max El. time (UTC)
Max El. Az.
Max El.
End time (UTC)
End Az.
|